HORIZONS-2

Last updated on Fri Dec 19 2025 00:02:49 GMT+0000 (Coordinated Universal Time)

1 32388U 07063B 25352.51271493 -.00000230 00000+0 00000+0 0 9993 2 32388 2.1359 82.9003 0004567 192.2180 283.0484 1.00272474 66001
UTC large
Height (km)
Speed (km/s)
/
Latitude / Longitude
Inclination (degrees)
Orbital Period (minutes)
Azimuth
Elevation
Range (km)
Doppler Factor

Next 0 passes for location: London (51.5072 / 0.1276)

Sorry there are no passes over London.